This is the latest recevied weather packets stored in our database for station/object N2ZVN. If no packets are shown the sender has not sent any weather packets the latest 10 day(s).
| Time | Temp. | Humidity | Pressure | Rain* | Wind** | Luminosity | Snow |
|---|---|---|---|---|---|---|---|
| 1788631052 | 22.22° C | 70% | 1015.5 hPa | 0 mm | - | 34 W/m² | - |
| 1788630747 | 21.67° C | 73% | 1015.5 hPa | 0 mm | - | 33 W/m² | - |
| 1788630442 | 21.67° C | 72% | 1015.6 hPa | 0 mm | - | 33 W/m² | - |
| 1788630138 | 21.67° C | 67% | 1015.4 hPa | 0 mm | - | 39 W/m² | - |
| 1788629834 | 21.67° C | 72% | 1015.5 hPa | 0 mm | - | 44 W/m² | - |
| 1788629558 | 22.22° C | 72% | 1015.3 hPa | 0 mm | - | 37 W/m² | - |
| 1788629229 | 22.22° C | 69% | 1015.4 hPa | 0 mm | - | 36 W/m² | - |
| 1788628923 | 22.22° C | 70% | 1015.3 hPa | 0 mm | - | 37 W/m² | - |
| 1788628619 | 22.22° C | 70% | 1015.5 hPa | 0 mm | - | 79 W/m² | - |
| 1788628315 | 22.78° C | 68% | 1015.2 hPa | 0 mm | - | 208 W/m² | - |
| 1788628013 | 22.78° C | 67% | 1015.3 hPa | 0 mm | - | 728 W/m² | - |
| 1788627712 | 22.78° C | 70% | 1015.2 hPa | 0 mm | - | 764 W/m² | - |
| 1788627412 | 22.22° C | 69% | 1015 hPa | 0 mm | - | 765 W/m² | - |
| 1788627107 | 22.22° C | 68% | 1015.1 hPa | 0 mm | - | 764 W/m² | - |
| 1788626802 | 22.78° C | 69% | 1015.3 hPa | 0 mm | - | 764 W/m² | - |
| 1788626501 | 22.22° C | 69% | 1015.4 hPa | 0 mm | - | 762 W/m² | - |
| 1788626197 | 22.78° C | 64% | 1015.4 hPa | 0 mm | - | 761 W/m² | - |
| 1788625894 | 22.78° C | 69% | 1015.4 hPa | 0 mm | - | 758 W/m² | - |
| 1788625590 | 22.78° C | 67% | 1015.4 hPa | 0 mm | - | 756 W/m² | - |
| 1788625289 | 22.78° C | 66% | 1015.4 hPa | 0 mm | - | 752 W/m² | - |
| 1788624989 | 23.33° C | 64% | 1015.5 hPa | 0 mm | - | 748 W/m² | - |
| 1788624687 | 22.78° C | 66% | 1015.6 hPa | 0 mm | - | 744 W/m² | - |
| 1788624381 | 22.78° C | 62% | 1015.5 hPa | 0 mm | - | 740 W/m² | - |
| 1788624081 | 22.78° C | 63% | 1015.2 hPa | 0 mm | - | 734 W/m² | - |
| 1788623781 | 22.78° C | 64% | 1015.4 hPa | 0 mm | - | 728 W/m² | - |
* Rain latest hour (hover to see other rain measurements)
** Current wind speed in m/s (hover to see current wind gust speed)